Regional Weather Roundup
Issued by NWS

Home | Current Version | Previous Version | Graphics & Text | Print | Product List | Glossary On
Versions: 1 2 3 4 5 6 7 8 9 10 11 12 13 14 15 16 17 18 19 20 21 22 23 24 25 26 27 28 29 30 31 32 33 34 35 36 37 38 39 40 41 42 43 44 45 46 47 48 49 50
000
ASUS43 KTOP 030159
RWRKS

WEATHER ROUNDUP FOR KANSAS
NATIONAL WEATHER SERVICE GOODLAND KS
800 PM CST MON MAR 02 2015

NOTE:  "FAIR" INDICATES FEW OR NO CLOUDS BELOW 12,000 FEET WITH NO
SIGNIFICANT WEATHER AND/OR OBSTRUCTIONS TO VISIBILITY.

KSZ001>006-013>018-027>032-041>047-030300-
NORTHWEST KANSAS

CITY           SKY/WX    TMP DP  RH WIND       PRES   REMARKS
GOODLAND       CLOUDY    31  29  92 S30       29.70F FOG     WCI  16
HAYS           CLOUDY    30  16  55 S15       29.92F WCI  19
HILL CITY      CLOUDY    31  22  69 S15       29.87F WCI  20
RUSSELL        CLOUDY    30  22  72 S13       29.93F WCI  20
$$

KSZ061>065-074>080-084>089-030300-
SOUTHWEST KANSAS

CITY           SKY/WX    TMP DP  RH WIND       PRES   REMARKS
DODGE CITY     CLOUDY    32  25  75 S20       29.88F WCI  20
ELKHART          N/A     36  28  73 SW13        N/A  WCI  27
GARDEN CITY    CLOUDY    33  29  85 S21G30    29.82F WCI  21
GREAT BEND     CLOUDY    30  21  69 S17       29.94F WCI  18
LIBERAL        CLOUDY    36  28  75 S13       29.91R WCI  27
$$

KSZ066>073-081>083-090>101-030300-
SOUTHEAST KANSAS

CITY           SKY/WX    TMP DP  RH WIND       PRES   REMARKS
CHANUTE        CLOUDY    34  27  75 S9        30.15S
COFFEYVILLE    CLOUDY    35  29  78 S7        30.15F
HUTCHINSON     CLOUDY    32  24  72 S17       30.04F WCI  21
MEDICINE LODGE   N/A     31  26  82 SE12G20   30.00F WCI  22
NEWTON         CLOUDY    30  25  80 S13       30.06F WCI  20
PARSONS        CLOUDY    35  28  75 S5        30.16F
WICHITA INTL   CLOUDY    32  27  81 S16       30.06F WCI  21
WICHITA JABRA  CLOUDY    31  28  89 S12       30.07F WCI  22
WINFIELD       CLOUDY    32  31  96 S10       30.13F FOG     WCI  24
$$

KSZ007>012-019>026-033>040-048>060-102>105-030300-
NORTHEAST KANSAS

CITY           SKY/WX    TMP DP  RH WIND       PRES   REMARKS
CONCORDIA      CLOUDY    31  21  66 SE15      30.00F WCI  20
EMPORIA        CLOUDY    32  27  81 S13       30.10F WCI  22
LAWRENCE       CLOUDY    33  22  63 SE9       30.13F
MANHATTAN      CLOUDY    34  22  61 SE10      30.06F WCI  26
OLATHE IND     CLOUDY    33  22  63 SE8       30.13F
OLATHE EXE     CLOUDY    33  22  63 SE7       30.13F
SALINA         CLOUDY    34  24  67 S13       30.02F WCI  25
TOPEKA BILLARD CLOUDY    34  21  59 SE9       30.12F
TOPEKA FORBES  CLOUDY    34  22  61 SE12      30.11R WCI  25
$$


USA.gov is the U.S. government's official web portal to all federal, state and local government web resources and services.